GFSCGP_sfc_temp_000.txt.gz
Temp
60 62 60 66 66 66 60 58 58 64 57 56 57 57 62 66 65 65 66 68 64 60 63 62 59 57 55 55 54 55 54 54 54 53 52 52 53 52 52 51 49 48 48 47
58 57 67 59 59 57 56 56 58 60 53 51 54 52 58 61 63 65 66 69 66 61 61 59 56 54 54 54 53 54 54 53 52 52 50 51 50 51 50 50 49 48 46 45
59 64 54 56 53 53 55 55 58 54 52 51 49 52 53 59 58 61 63 64 65 60 59 56 53 53 52 52 52 53 53 52 51 49 48 47 47 47 47 48 48 47 44 43
57 58 55 53 55 55 52 57 53 50 49 49 50 45 57 59 57 60 65 62 59 58 57 56 53 51 51 52 53 52 51 49 49 47 45 45 48 47 49 47 46 45 44 43
58 50 50 51 55 55 54 50 49 48 48 42 50 42 56 48 52 60 67 66 61 61 58 56 53 52 52 51 51 50 49 48 47 46 46 45 44 45 46 44 42 42 43 42
54 53 53 56 48 50 48 49 46 44 45 38 51 47 54 56 58 62 67 65 61 58 58 58 56 53 51 51 49 49 47 47 46 46 45 44 43 43 41 41 40 41 42 41
51 51 51 51 50 49 50 50 45 42 38 41 45 41 52 59 63 62 68 69 61 59 56 55 52 50 49 48 48 47 46 45 45 44 44 43 42 41 40 40 39 39 39 39
50 49 46 52 56 55 47 52 44 34 40 45 36 38 55 60 64 66 59 59 56 57 56 53 52 51 49 47 47 47 45 45 44 43 42 42 41 40 39 38 38 37 36 37
48 50 46 46 49 53 45 43 51 41 29 34 50 57 57 53 54 54 55 57 58 57 55 53 53 51 49 47 47 46 45 44 43 42 41 39 38 37 36 36 35 35 36 34
55 46 46 43 48 46 45 49 41 43 34 34 46 50 52 55 56 54 52 55 59 58 56 53 51 50 49 49 48 47 46 44 42 40 39 38 36 35 35 34 33 33 33 32
53 49 45 44 43 46 42 43 43 44 40 38 37 47 56 55 60 56 58 61 62 59 57 54 51 51 50 49 47 46 45 42 39 38 37 35 34 32 32 31 31 30 30 29
51 47 45 49 45 44 50 49 49 41 38 40 43 45 58 58 59 58 60 57 59 59 60 58 53 50 48 47 46 44 43 39 38 37 34 33 32 30 29 30 29 28 26 26
47 41 37 44 40 40 42 45 46 50 46 40 36 42 63 64 59 56 57 58 57 56 58 54 51 48 47 46 43 43 41 38 36 33 32 30 29 28 28 27 26 25 24 23
50 41 43 41 48 45 41 43 44 45 40 41 42 47 56 59 59 63 61 55 57 58 57 57 51 48 46 44 42 40 38 36 33 31 30 29 28 27 25 24 23 22 22 20
48 39 42 45 49 49 47 47 45 40 44 42 47 49 54 58 59 61 63 62 60 60 53 55 51 47 45 42 39 38 36 33 31 29 28 27 26 24 22 20 20 19 18 18
42 38 41 36 44 42 40 45 46 46 45 46 46 44 56 59 60 59 59 59 57 58 58 52 47 44 41 39 37 34 34 30 29 27 26 24 21 19 18 17 16 16 16 16
37 35 32 29 38 38 31 35 40 43 48 48 41 50 57 55 55 55 57 57 54 55 56 55 46 43 40 37 35 33 30 27 24 23 21 19 18 15 15 14 13 13 13 14
38 36 36 30 32 22 39 49 48 44 46 49 49 52 54 55 57 57 59 54 53 55 54 48 46 45 40 38 35 32 26 23 21 20 16 16 14 13 13 12 12 12 13 13
43 39 31 27 28 37 38 44 42 40 41 50 48 50 53 55 52 54 58 58 56 56 57 54 47 44 38 35 32 25 22 21 20 17 16 14 13 10 10 7 10 11 11 11
40 42 33 30 25 24 42 48 52 46 34 53 51 50 50 48 40 49 59 55 53 52 47 39 38 36 33 28 24 22 20 19 18 18 16 14 11 7 6 8 7 10 8 10
32 32 28 29 27 33 47 47 46 29 39 54 54 53 51 47 50 55 48 47 41 38 35 35 33 29 28 24 23 22 19 18 19 16 13 10 9 6 6 6 8 7 7 9
38 31 29 29 26 25 49 49 40 51 56 55 56 52 47 50 52 52 48 38 34 31 29 29 26 24 22 23 24 20 18 17 14 12 10 8 4 7 6 2 5 5 6 7
34 44 40 40 40 51 54 51 54 55 55 55 53 52 50 49 49 50 45 35 33 31 27 26 23 19 21 22 23 19 15 12 10 8 5 4 4 5 4 4 6 10 8 9
38 48 41 42 48 50 51 54 55 56 52 53 54 53 50 49 49 45 40 34 29 26 24 23 20 18 17 19 20 14 12 10 6 5 5 5 6 6 5 8 9 8 10 10
36 36 33 32 37 42 46 50 51 50 47 45 47 46 48 48 42 44 40 35 31 27 24 21 20 18 15 15 11 10 8 5 5 7 7 7 7 7 7 8 8 9 11 12
38 36 33 33 43 42 44 45 46 44 46 48 46 45 45 43 44 44 39 38 31 25 22 20 19 15 13 11 9 7 5 6 7 6 6 7 7 7 7 7 8 8 10 12

GFSCGP_sfc_temp_003.txt.gz
Temp
67 63 62 69 71 68 66 63 62 68 72 62 61 62 66 71 72 71 72 74 76 76 79 71 69 68 66 64 62 61 58 59 58 55 53 53 52 52 53 53 51 51 51 50
60 58 69 72 64 65 65 59 60 67 69 57 59 58 65 68 68 70 70 71 74 76 74 68 67 65 62 61 59 60 58 58 57 57 55 57 56 54 54 53 51 51 49 48
59 68 64 62 63 58 60 58 61 61 65 60 56 54 61 67 68 68 68 70 72 72 71 67 64 62 61 59 58 58 58 58 57 56 54 51 50 50 49 49 49 49 48 46
63 68 64 59 58 63 54 65 62 58 54 50 57 46 59 64 67 66 65 71 75 68 67 66 63 60 58 58 58 58 57 57 56 53 49 48 49 50 53 53 50 48 48 46
62 59 54 55 59 63 58 56 56 55 52 52 53 48 56 58 59 61 66 70 75 68 65 64 61 58 59 57 55 56 56 56 53 51 49 48 48 51 52 49 46 45 46 46
58 57 58 60 53 56 55 54 52 51 51 42 54 53 54 60 62 66 69 72 75 67 64 64 63 60 58 56 54 53 53 52 52 50 48 48 47 47 45 45 44 45 46 45
58 56 58 56 53 53 53 52 46 44 40 40 60 51 58 65 67 68 70 72 72 65 64 63 61 57 56 54 52 51 52 50 50 48 48 47 47 47 45 45 44 43 43 43
54 50 53 55 57 60 50 55 46 36 40 46 44 44 57 69 72 70 71 70 68 65 64 62 61 58 55 53 51 51 49 50 49 47 47 47 47 46 45 44 43 42 41 41
53 52 51 55 55 59 52 44 57 45 39 38 50 58 66 66 65 65 63 63 64 63 62 61 61 59 56 53 50 49 50 49 48 47 46 46 45 44 42 42 41 40 40 39
60 49 56 46 50 52 52 55 45 46 34 35 47 50 53 59 60 62 60 60 65 65 64 62 60 58 56 55 51 50 50 48 47 45 45 44 42 42 41 40 38 37 38 36
58 52 50 47 45 52 45 46 47 48 48 39 38 47 63 61 63 65 65 65 67 66 64 63 60 59 57 54 51 50 49 47 46 44 43 41 40 39 38 37 36 36 35 33
54 48 43 51 61 57 56 53 53 42 41 46 45 46 63 63 62 63 64 65 69 67 68 68 63 59 55 53 52 50 48 46 45 43 41 39 38 36 35 34 34 33 31 30
51 42 37 43 47 45 46 51 52 53 48 41 37 44 65 66 67 69 63 65 63 61 65 65 64 58 56 53 51 50 47 46 44 41 38 37 35 34 33 33 32 30 28 27
51 45 43 41 47 54 47 47 48 48 41 41 43 48 57 60 62 65 67 67 66 64 65 66 62 58 56 53 52 50 46 45 42 39 36 34 33 32 32 31 29 27 26 24
46 36 42 46 51 53 51 50 48 44 46 42 46 49 55 60 61 64 67 67 65 65 65 63 59 60 55 51 50 47 45 42 39 35 34 32 32 32 29 26 24 23 22 21
45 33 36 32 40 41 40 45 47 47 48 48 48 47 58 61 63 61 62 63 61 61 62 60 58 54 49 47 46 43 43 39 36 33 31 31 28 25 24 23 21 20 19 19
35 33 32 28 38 35 30 37 43 46 50 49 42 51 59 58 59 59 60 61 59 60 58 54 54 51 48 47 43 41 40 36 31 30 28 26 23 20 20 19 17 16 16 17
36 33 33 30 34 23 38 49 47 44 46 50 51 54 56 57 60 58 60 58 57 57 55 53 50 52 47 46 42 40 36 30 28 26 23 21 20 18 18 16 15 15 16 15
42 37 32 28 28 36 39 46 44 42 42 50 49 52 54 56 54 53 60 60 58 58 58 57 55 52 47 43 40 34 30 27 26 23 21 19 18 16 15 13 14 15 15 15
40 39 33 31 26 25 41 48 54 52 35 53 53 52 52 52 41 49 59 54 52 54 53 49 45 43 40 37 34 29 25 24 23 21 19 17 16 14 13 13 13 13 13 12
32 31 29 29 28 33 48 51 51 33 40 54 54 53 53 48 51 57 51 51 51 46 41 40 40 37 36 33 29 25 24 23 23 21 17 15 13 12 12 11 12 10 10 12
39 32 29 30 27 25 51 49 41 51 57 57 57 55 52 54 55 54 56 54 45 42 36 36 32 31 30 28 27 25 23 24 21 16 13 11 9 10 8 7 7 8 9 9
32 41 33 39 39 52 56 54 57 57 56 56 55 57 59 56 54 52 52 50 43 42 33 31 30 27 25 26 27 24 24 19 15 13 10 8 7 9 7 5 8 9 9 12
36 41 32 31 38 40 43 48 48 48 42 43 45 45 48 48 48 45 41 42 37 34 32 28 26 23 22 24 25 24 17 16 13 10 8 7 6 7 6 9 10 11 11 12
31 34 32 31 37 43 44 46 46 43 41 41 42 42 44 44 42 43 42 41 39 35 31 27 25 24 22 23 24 16 15 14 11 10 8 7 8 7 8 11 10 12 13 13
35 32 28 27 40 39 40 41 43 41 41 43 42 43 44 43 41 42 41 42 42 38 30 26 25 23 21 22 16 15 14 14 12 10 9 9 8 9 9 9 7 12 13 14

GFSCGP_sfc_temp_006.txt.gz
Temp
59 52 50 55 59 60 59 55 53 60 63 55 53 55 59 62 63 62 64 66 66 64 67 66 64 59 57 56 55 54 51 51 51 47 44 42 43 42 42 44 45 45 45 44
53 49 59 62 61 56 54 52 53 60 61 54 52 52 57 59 61 64 64 65 65 61 63 58 58 56 57 55 54 53 52 52 51 49 46 45 44 42 43 44 44 44 43 43
53 57 62 59 55 54 53 49 51 52 55 50 46 45 50 55 61 62 62 65 62 61 61 55 55 55 54 54 54 54 53 52 51 48 46 43 42 41 40 40 40 41 41 40
55 62 60 56 54 56 49 56 54 53 46 38 48 40 49 53 57 58 61 63 60 59 60 57 54 52 53 54 54 54 53 52 51 48 45 42 40 37 39 40 39 39 40 40
52 51 50 49 53 56 50 49 47 46 42 39 41 38 46 55 52 55 59 63 63 61 58 55 55 55 54 52 52 52 51 51 51 48 45 42 38 40 41 39 37 37 37 38
53 53 51 52 50 49 50 46 45 42 40 32 43 43 42 48 53 55 58 61 61 55 54 54 53 52 52 50 49 51 50 50 49 46 43 42 41 39 38 35 35 34 35 35
48 50 49 51 47 46 45 42 31 29 27 35 47 41 51 53 57 59 59 61 59 55 52 51 50 50 49 48 48 48 48 48 47 44 43 42 41 40 39 38 36 34 33 33
43 43 48 50 51 47 42 44 31 24 33 40 37 35 47 58 61 61 62 62 56 53 52 51 50 50 50 49 47 47 46 47 46 43 42 42 40 42 40 38 37 34 33 33
44 45 46 49 49 52 43 38 46 34 26 27 42 47 53 55 57 57 56 55 52 52 51 51 51 50 48 47 47 47 47 46 46 43 42 41 41 38 37 35 34 32 32 34
50 44 49 43 45 44 43 46 35 34 22 21 40 41 46 53 58 53 50 52 52 52 51 51 50 49 49 49 48 47 46 45 45 43 42 41 39 36 34 33 32 31 31 31
49 46 43 43 39 42 37 37 40 42 36 26 31 40 49 51 52 53 52 53 54 53 52 51 50 50 49 48 47 45 44 43 42 40 39 38 35 34 32 33 31 30 30 29
50 44 35 45 51 46 48 45 47 38 36 33 39 41 57 54 53 54 54 57 57 56 54 53 52 49 48 48 46 45 43 42 41 39 37 36 33 33 32 31 30 29 27 27
45 37 29 35 44 42 40 44 48 47 43 38 33 40 59 62 59 56 54 55 55 56 54 53 50 48 48 47 45 44 43 42 40 38 37 34 33 32 31 30 29 27 26 25
45 37 34 32 39 45 39 42 43 44 37 38 39 42 51 56 57 60 60 61 55 53 55 54 50 49 49 47 46 45 43 41 39 37 35 33 31 31 29 28 27 26 24 23
41 30 33 38 41 40 38 40 43 41 42 36 42 44 50 55 56 58 61 61 59 56 56 53 51 49 49 45 45 44 44 40 39 36 34 32 30 29 28 26 24 23 22 21
40 32 32 30 35 36 34 39 41 40 42 43 45 43 55 58 59 58 59 60 58 57 59 58 50 45 42 42 45 42 42 38 37 34 31 31 28 27 25 23 22 21 20 20
34 32 31 28 35 32 28 33 37 40 44 43 38 46 55 54 56 57 59 59 58 56 56 49 48 46 42 42 41 40 40 37 34 31 30 27 26 23 22 21 20 19 19 19
37 34 34 30 34 22 36 45 43 41 44 46 47 49 52 53 57 58 56 52 54 55 55 52 43 45 43 39 36 36 35 33 31 28 27 25 23 22 20 19 19 18 17 17
45 39 32 28 28 35 37 43 41 38 39 48 46 49 51 54 53 53 58 59 57 56 56 54 45 43 42 37 36 34 31 29 27 26 24 22 22 20 19 17 16 16 16 16
40 41 34 32 27 25 38 47 51 50 34 49 51 50 49 50 39 46 56 55 49 49 48 45 42 40 36 31 32 31 27 26 25 25 24 22 21 18 17 16 15 16 16 15
31 32 30 31 29 32 41 46 47 29 37 51 52 51 50 46 48 53 49 46 44 45 45 38 37 36 32 31 30 28 26 24 26 24 22 19 18 16 17 15 14 13 13 14
30 28 28 31 28 25 38 40 34 37 37 37 37 38 37 40 42 42 43 42 42 41 37 34 30 28 27 28 28 26 24 25 24 21 18 16 15 15 14 13 11 10 11 11
23 25 21 24 26 36 35 34 39 38 33 34 34 35 36 37 38 40 39 40 40 39 33 26 27 24 23 24 26 24 24 22 19 16 14 11 12 10 10 10 8 9 10 11
28 34 26 25 32 33 36 41 41 40 36 37 36 36 39 38 38 37 39 40 38 32 34 25 24 24 22 20 23 21 21 20 15 13 11 9 9 7 8 11 11 11 10 11
25 28 23 24 31 34 36 38 39 38 37 34 35 36 37 38 37 37 38 38 38 34 29 26 27 28 28 23 23 21 18 16 14 11 10 9 8 8 9 11 11 13 14 14
28 26 23 21 32 31 32 34 35 28 26 29 30 30 32 34 34 37 36 37 36 37 35 26 27 28 27 23 22 16 16 15 13 12 10 9 8 9 10 10 11 18 17 19

GFSCGP_sfc_temp_009.txt.gz
Temp
53 46 44 53 51 51 49 46 45 54 58 53 54 52 57 60 55 55 57 60 63 64 64 60 60 61 58 54 53 52 51 51 51 48 44 42 44 40 40 40 42 42 41 41
47 44 55 55 53 51 49 47 47 55 56 51 51 52 57 54 57 60 60 60 62 64 58 59 54 53 54 52 53 52 52 50 51 50 48 43 44 38 40 40 41 41 41 40
50 52 56 54 51 49 51 47 49 48 52 48 45 43 49 53 55 59 62 61 63 63 56 54 50 53 53 52 51 52 52 51 51 49 45 40 40 38 38 38 39 39 39 38
48 56 55 49 49 52 49 52 52 48 41 40 43 38 45 50 51 53 58 59 60 54 54 53 51 47 52 52 52 52 51 50 49 47 46 42 44 42 43 44 41 38 38 37
49 48 46 48 52 52 50 48 46 42 38 35 39 35 42 50 48 54 60 60 61 57 54 52 52 55 52 51 51 51 49 49 49 47 47 44 43 43 37 37 37 36 35 36
47 48 50 50 47 50 48 43 42 39 36 32 38 40 44 44 50 52 58 59 62 61 55 54 53 50 49 48 49 49 48 48 48 47 46 44 43 38 36 36 37 36 35 34
43 47 47 50 44 44 43 39 29 27 24 32 43 36 49 50 53 56 59 59 61 54 52 49 48 48 47 45 47 48 47 46 47 46 44 44 43 41 39 38 38 35 34 32
38 42 45 48 50 44 39 41 29 23 31 39 36 31 42 54 57 57 58 62 55 51 50 49 48 48 47 47 45 47 45 46 45 45 43 43 41 42 41 39 38 38 37 35
38 42 44 44 45 49 40 37 45 32 17 24 40 43 49 51 53 53 55 49 52 50 48 48 46 46 46 45 46 47 46 47 45 44 43 41 41 41 40 38 37 36 35 34
49 40 47 42 43 43 41 44 33 31 22 18 38 34 45 51 57 59 50 50 50 49 49 47 47 47 46 47 47 46 47 46 45 43 43 41 40 41 40 36 35 33 33 32
47 45 44 41 38 39 38 37 40 39 31 33 32 40 48 47 51 52 49 50 50 51 49 49 48 48 48 47 45 45 44 43 42 41 41 40 38 38 36 36 34 33 32 30
43 40 32 41 45 45 44 43 44 37 33 30 36 40 60 52 52 51 52 52 48 51 52 50 48 48 44 45 44 43 43 42 42 41 39 38 36 34 34 34 32 30 30 29
42 34 28 33 43 39 41 42 45 44 37 33 29 34 57 57 58 59 51 51 53 55 54 50 48 46 47 46 45 45 44 42 41 39 37 36 34 33 33 31 29 30 28 27
45 33 32 31 40 44 37 38 41 43 35 37 36 39 48 52 54 58 59 61 61 58 54 53 54 49 46 46 46 45 43 42 39 36 36 35 34 33 32 30 29 29 28 25
41 31 33 36 39 41 39 39 39 37 39 34 38 40 46 51 53 56 59 60 59 52 52 53 53 49 46 46 45 44 44 40 38 36 36 34 34 33 29 29 28 26 25 24
42 34 35 32 35 34 32 37 38 38 39 39 41 42 53 56 57 56 57 58 56 57 59 55 50 48 46 44 46 44 43 39 37 36 35 34 30 28 28 27 25 24 24 22
38 33 33 30 34 33 28 34 37 38 42 41 35 44 53 52 53 54 56 57 56 57 57 53 49 47 43 43 43 41 41 36 35 34 33 30 28 27 27 26 24 23 22 21
36 33 32 30 32 23 35 42 41 39 43 46 45 48 51 52 54 56 58 55 55 56 55 47 43 44 43 42 38 40 33 34 34 32 30 28 27 26 25 23 23 21 20 19
40 36 31 28 28 34 38 39 40 37 37 46 43 47 49 50 51 50 53 49 51 51 53 50 47 45 42 41 38 34 31 32 31 29 28 27 26 24 23 21 21 20 19 18
37 39 34 32 25 23 39 40 45 47 32 31 32 32 33 36 31 35 41 41 40 42 44 42 42 41 39 33 31 31 30 29 29 29 28 26 26 23 21 21 20 19 18 17
29 33 29 30 27 31 31 29 36 28 22 30 32 31 30 30 33 36 38 39 41 40 38 38 37 33 30 27 27 28 27 28 28 25 25 23 23 22 22 20 19 17 17 18
23 20 21 23 24 22 30 30 20 26 32 30 31 32 31 33 35 36 38 39 40 39 39 38 32 32 26 26 26 25 25 24 22 23 21 21 21 20 18 17 15 16 16 15
18 21 18 20 20 28 34 34 36 35 30 31 31 31 32 32 34 36 37 37 38 38 37 37 30 29 23 24 27 27 24 22 20 20 19 18 17 16 15 14 13 13 14 13
24 30 23 21 28 30 33 37 37 34 32 32 29 27 30 30 31 31 33 34 35 35 36 37 36 34 34 27 26 29 23 22 18 16 15 14 14 12 13 15 14 14 13 14
22 26 19 21 27 30 33 34 31 31 29 28 27 28 28 27 26 27 27 29 32 34 35 35 34 34 34 33 27 26 23 22 20 18 15 14 14 12 12 14 14 15 17 18
27 24 21 19 30 24 27 27 29 23 22 23 23 22 23 23 22 23 24 26 27 28 30 33 34 31 34 35 28 26 23 21 19 16 14 14 13 13 12 12 14 21 20 23

GFSCGP_sfc_temp_015.txt.gz
Temp
48 43 42 50 48 46 43 40 40 46 51 44 45 48 53 59 58 57 52 58 61 62 67 64 58 54 53 52 53 53 51 52 51 47 44 44 45 43 42 42 43 42 41 40
41 40 51 49 48 45 44 43 43 50 53 44 47 48 53 54 56 61 63 62 61 62 63 63 53 51 50 53 53 52 52 51 51 50 51 49 49 41 45 41 40 41 40 39
45 47 51 48 45 44 42 40 45 44 45 43 41 44 47 50 55 59 61 62 63 63 62 63 53 50 48 48 50 51 51 50 52 51 47 38 38 36 36 36 38 39 39 37
43 49 49 42 42 47 44 47 47 44 37 36 41 36 42 49 52 51 56 59 58 58 59 59 54 49 48 51 48 50 50 49 51 49 46 46 46 44 42 45 42 39 38 37
45 43 41 41 47 46 45 45 43 38 34 32 32 31 38 45 46 50 55 56 59 58 57 59 52 51 51 46 45 47 48 48 50 48 47 47 46 47 42 38 37 37 35 36
44 45 47 47 45 46 45 41 38 33 33 28 38 37 42 41 48 48 53 56 58 60 59 54 50 49 45 42 42 45 46 46 48 47 46 47 47 40 38 37 37 37 36 35
39 41 42 48 42 40 42 37 29 26 23 30 37 34 48 52 51 52 59 57 56 55 53 53 50 48 42 40 41 43 44 44 44 44 45 45 46 42 42 39 40 37 36 35
36 38 42 44 46 41 38 40 29 20 29 36 34 32 49 51 53 50 50 52 51 52 50 50 51 46 42 41 40 43 42 43 43 44 44 44 44 43 42 40 41 38 39 38
35 37 41 43 43 48 36 34 44 34 25 25 39 43 52 47 48 48 49 49 50 46 47 48 46 44 43 41 39 41 41 43 43 43 44 44 43 42 41 38 39 39 39 38
46 39 46 41 40 41 42 42 31 29 23 23 32 37 42 48 53 51 48 48 52 49 49 48 47 45 43 42 41 41 41 43 43 42 43 44 43 42 41 36 37 37 37 36
45 39 37 40 37 41 35 35 36 37 33 31 30 36 54 51 49 49 47 48 52 51 53 51 49 47 45 42 40 40 41 42 42 42 42 42 40 41 40 37 38 37 36 34
44 38 32 37 39 41 41 39 40 34 33 36 37 38 56 57 52 47 54 58 56 51 51 51 51 52 50 46 42 42 42 42 43 43 41 40 40 39 38 38 37 37 34 34
43 35 29 31 35 35 34 41 42 41 38 32 28 34 54 55 55 58 55 50 49 51 56 55 50 49 49 49 46 43 43 43 41 38 38 39 39 37 38 39 37 35 35 33
44 38 34 29 34 41 35 38 40 40 34 35 36 39 45 49 51 56 59 55 52 48 44 43 43 44 46 48 47 44 43 41 38 36 37 39 38 37 38 39 36 34 35 33
38 32 34 34 34 34 33 33 34 33 38 33 36 36 41 47 49 46 40 41 39 39 40 41 40 41 42 43 44 45 46 39 37 37 38 38 39 38 37 36 34 34 33 33
37 27 31 28 33 34 31 34 36 35 33 32 34 37 36 32 31 30 34 36 35 36 38 39 40 41 40 41 41 41 43 43 36 36 37 38 35 33 34 34 32 32 31 31
30 28 22 21 29 28 22 30 34 37 40 39 31 27 28 27 28 29 31 34 35 37 38 38 38 39 37 38 39 39 38 38 37 36 37 35 33 32 32 33 31 30 30 29
28 26 18 17 17 4 27 33 30 29 28 27 26 25 26 27 30 34 32 33 32 34 36 38 38 37 37 38 37 36 35 35 35 34 33 29 30 32 30 29 29 29 29 28
32 27 14 11 5 22 29 23 21 20 22 26 25 26 28 29 30 33 37 36 35 35 36 37 38 38 38 37 36 33 33 34 32 32 30 27 28 29 27 28 28 28 28 26
29 30 23 6 7 8 20 25 30 30 18 27 26 26 26 27 18 24 34 34 34 35 35 34 34 36 36 36 35 32 32 32 31 31 30 26 26 28 26 27 26 27 27 26
5 2 3 -0 6 13 21 24 30 12 15 22 24 26 24 21 23 29 32 32 34 32 29 31 30 29 31 34 34 32 32 32 31 26 24 21 21 22 22 24 23 25 25 24
11 2 -0 -2 -5 4 25 26 19 24 29 28 29 28 27 28 28 28 29 29 29 29 30 30 27 27 29 30 30 30 30 33 29 24 22 20 18 20 19 22 19 18 21 20
10 17 11 13 12 28 30 29 31 31 26 26 26 27 27 26 26 27 26 26 27 27 27 27 26 25 26 27 27 24 26 29 32 28 25 23 23 22 19 22 20 19 19 20
23 28 19 16 26 26 29 32 32 32 28 28 27 25 25 23 24 24 23 24 24 23 23 24 22 20 20 22 22 23 24 26 24 27 27 24 21 21 21 21 20 20 18 19
24 23 19 21 27 29 30 32 32 30 28 27 26 25 24 22 21 22 20 20 21 21 21 20 18 17 17 19 18 19 20 20 19 22 26 24 21 20 19 20 20 20 21 22
27 24 20 18 29 28 29 33 31 26 26 23 21 21 23 22 20 20 18 19 19 18 18 16 15 14 13 13 12 13 15 15 15 16 20 24 22 20 20 19 19 25 25 25

GFSCGP_sfc_temp_021.txt.gz
Temp
46 42 41 48 46 44 41 40 39 44 49 44 49 50 51 56 54 56 60 62 61 62 66 66 61 60 56 54 54 55 53 54 53 52 49 49 48 50 48 50 50 49 49 47
41 38 47 46 45 44 42 42 41 46 50 43 44 47 54 56 57 59 60 61 59 59 63 63 59 57 55 56 53 53 53 53 52 53 53 54 53 51 51 50 49 49 48 47
42 45 47 45 42 43 39 38 42 41 42 43 40 41 42 51 51 54 58 58 58 58 59 62 58 56 55 53 51 52 53 52 53 54 52 44 46 44 45 45 45 45 46 45
41 45 45 40 41 43 40 44 43 40 37 34 41 34 40 49 52 51 53 53 54 54 56 56 54 53 53 54 50 50 51 51 51 52 49 49 51 48 48 49 47 46 45 45
42 41 39 39 43 43 42 43 40 38 35 33 33 32 39 43 49 51 55 54 54 55 52 53 52 52 52 50 48 47 48 49 50 50 50 48 50 50 48 50 45 44 43 44
41 43 44 45 43 44 43 39 38 33 33 27 36 36 36 42 48 48 55 56 54 53 52 53 51 50 50 46 44 44 45 45 47 48 48 47 48 45 44 43 43 42 41 41
39 40 42 44 40 41 41 37 29 26 24 28 34 32 40 47 51 51 54 54 53 50 49 50 53 51 48 45 42 43 43 44 45 45 46 46 48 46 45 43 44 41 40 40
34 35 41 43 46 43 38 41 33 23 22 30 34 32 41 48 52 50 48 50 50 50 49 49 47 46 46 44 43 42 41 42 42 42 43 44 45 46 45 44 45 43 43 43
35 33 40 40 43 48 38 36 43 33 29 26 34 40 49 48 48 48 48 47 44 42 41 41 42 43 43 43 42 42 41 41 42 41 42 42 43 43 43 41 42 43 43 43
40 32 41 40 40 38 42 44 34 32 23 23 31 32 38 44 45 45 38 36 38 39 40 40 41 42 42 43 44 44 43 41 42 41 41 42 41 42 43 40 39 40 41 41
43 37 36 38 36 38 36 35 37 37 34 29 28 31 48 42 34 34 35 36 37 38 39 40 41 42 42 42 42 42 42 41 41 41 40 39 40 40 40 38 39 39 40 39
42 37 31 38 45 41 41 42 42 34 30 33 34 35 46 35 35 36 34 36 38 38 39 40 40 41 41 41 41 41 41 40 39 40 39 39 39 38 37 38 38 39 38 38
41 34 30 31 33 35 35 36 35 34 32 29 26 31 45 46 34 33 34 34 36 38 39 39 40 39 39 40 40 40 40 39 38 38 38 38 38 37 37 38 38 37 38 38
43 34 32 28 33 37 33 34 34 31 25 28 28 30 39 43 31 32 32 33 34 36 37 37 38 39 39 39 39 39 39 39 37 36 36 36 36 37 38 38 38 37 37 38
37 31 32 34 33 31 29 28 29 27 30 24 28 30 38 28 28 31 34 34 34 34 35 36 35 36 37 37 38 38 38 36 36 35 35 35 36 36 36 36 36 36 35 36
33 26 27 24 29 30 26 28 29 29 30 30 31 30 29 31 31 30 32 33 31 33 34 34 35 35 34 34 34 34 35 34 34 33 33 34 34 34 34 34 34 34 33 33
27 26 21 19 26 22 17 25 30 31 33 28 24 23 24 24 28 29 30 31 31 32 33 32 33 33 32 32 32 31 31 32 31 31 32 32 32 32 32 32 32 32 32 33
27 23 19 17 9 9 25 25 27 27 26 22 19 18 23 25 29 30 31 31 31 32 32 32 32 31 30 30 29 30 30 29 29 29 30 30 29 29 30 29 30 30 31 31
29 25 4 3 -0 15 23 23 22 19 18 21 18 21 26 28 27 25 31 32 32 31 31 31 31 30 29 28 28 27 27 26 26 27 27 27 26 27 29 28 28 29 29 29
26 26 16 -7 -0 -4 18 23 25 25 10 19 17 20 21 25 13 24 30 32 30 30 30 31 28 29 28 27 26 25 24 24 24 25 25 25 24 25 23 26 27 28 28 28
1 4 13 13 10 10 20 23 27 7 12 17 19 23 23 21 26 31 30 29 29 29 29 28 26 27 27 26 24 23 23 22 24 23 23 22 22 22 22 24 27 26 26 27
12 1 -5 -7 -4 3 21 24 17 23 29 26 25 27 26 29 30 31 30 30 28 27 28 28 25 25 27 26 22 21 21 24 20 20 19 17 17 18 19 19 22 25 24 24
9 16 9 11 11 25 24 27 31 33 26 29 26 29 28 28 29 30 28 26 26 26 25 26 22 23 24 24 21 18 21 21 19 14 13 13 14 15 16 16 18 21 24 22
21 24 19 20 26 26 30 33 33 32 30 32 30 28 27 25 27 25 24 24 24 24 23 23 20 20 20 22 21 19 19 17 11 10 11 12 11 12 13 15 17 19 23 23
24 22 18 21 27 28 30 31 32 33 31 28 26 25 24 22 21 22 20 20 21 21 20 20 18 17 17 18 17 17 15 12 8 8 9 9 10 9 10 13 15 17 22 25
27 24 20 18 28 28 29 32 28 27 23 21 20 19 21 20 19 18 16 17 16 16 15 14 13 12 12 11 11 11 10 8 6 4 5 6 7 7 8 9 11 19 23 27

GFSCGP_sfc_temp_024.txt.gz
Temp
60 57 53 60 61 62 59 55 54 59 64 57 57 59 63 66 66 67 70 72 74 74 78 77 74 74 74 73 71 71 69 67 67 64 63 63 62 61 63 64 62 62 61 59
53 51 60 60 57 54 55 52 53 59 61 55 57 56 61 65 66 68 69 70 72 73 74 74 72 70 71 70 69 67 67 67 65 65 64 65 64 63 63 62 61 61 59 59
54 60 57 54 54 52 54 51 53 53 56 56 52 55 56 66 66 67 67 69 69 69 68 69 68 67 66 64 63 63 64 64 64 63 63 62 61 62 60 59 58 57 58 56
53 56 52 50 50 54 49 59 53 50 48 46 52 44 56 63 63 64 67 66 68 66 65 65 62 61 59 57 58 59 60 61 61 62 60 58 58 57 59 59 58 56 55 56
54 51 48 48 52 54 51 52 50 48 47 44 49 43 56 55 59 65 66 63 62 60 59 57 57 56 56 54 54 56 57 58 58 59 59 57 56 60 62 60 56 54 53 54
52 54 53 55 52 52 52 52 50 46 46 39 50 46 50 56 59 62 64 58 56 55 55 54 54 53 52 53 53 53 55 54 55 56 57 56 55 56 56 55 54 53 53 52
54 53 53 53 50 50 50 47 40 39 38 39 46 43 50 59 60 59 55 51 51 51 51 50 50 50 50 49 50 51 51 51 52 52 53 55 54 55 55 54 53 53 51 50
44 42 49 52 53 49 45 46 33 27 33 39 45 40 51 60 60 53 50 49 49 49 49 49 49 49 49 49 50 50 49 48 49 50 50 52 52 52 54 55 55 55 53 53
42 41 50 48 51 53 45 41 49 37 35 30 42 50 57 55 56 49 48 49 47 47 47 47 48 49 49 49 48 49 49 48 48 48 48 49 50 50 51 52 53 53 54 53
42 34 46 49 49 50 49 51 37 37 26 25 37 41 45 51 50 47 46 45 45 46 47 47 48 47 48 49 49 49 49 47 47 47 47 47 47 47 48 50 49 49 51 51
46 40 43 44 44 45 41 40 38 35 33 28 28 38 55 50 44 43 42 43 43 44 46 47 47 48 48 49 48 48 47 46 45 45 45 45 46 46 46 46 46 46 48 48
49 41 33 41 52 51 49 45 45 35 33 38 36 37 47 43 41 41 39 40 42 43 44 46 46 46 45 46 46 46 45 44 43 44 44 43 44 44 44 44 45 45 44 46
46 37 31 34 43 41 39 42 41 39 33 30 28 31 45 41 39 38 36 37 39 41 43 44 44 44 44 43 44 44 44 43 42 42 42 42 41 41 41 42 42 43 44 43
44 36 32 28 35 41 33 35 36 34 29 31 31 35 44 47 45 37 37 37 38 39 40 41 42 42 43 43 43 42 42 42 41 40 40 39 39 39 39 39 39 39 40 40
38 30 34 35 35 34 33 33 34 32 32 26 32 32 39 42 33 35 38 39 37 38 38 39 38 40 41 41 41 40 40 39 39 38 38 38 38 39 38 37 37 37 37 37
36 29 32 26 35 34 30 34 34 33 33 33 34 33 45 37 37 37 38 38 38 38 39 39 39 40 39 39 39 38 39 37 36 35 35 36 36 34 34 35 34 35 35 35
29 28 27 23 33 29 21 28 33 35 39 38 32 35 31 31 35 37 38 38 38 38 39 39 39 39 39 39 39 38 37 37 34 33 33 32 32 30 31 33 33 34 34 35
30 27 26 21 21 12 32 39 36 33 35 30 28 28 30 33 37 38 39 37 37 39 39 40 40 40 40 40 38 38 36 34 32 30 30 31 30 28 29 31 30 31 34 33
34 29 23 16 18 25 28 35 31 29 30 30 28 30 34 37 36 36 41 41 40 41 41 40 40 39 39 37 37 34 32 32 31 30 30 30 28 26 26 25 27 29 30 31
29 30 23 9 11 11 28 31 33 32 21 27 28 30 30 33 24 32 41 42 40 41 41 39 39 37 35 35 34 30 30 30 29 30 30 29 27 24 22 24 24 26 27 28
18 18 16 18 15 21 30 30 33 17 22 30 30 31 31 29 33 38 40 40 40 40 39 38 36 34 33 32 31 28 28 27 30 29 28 26 25 22 22 22 23 22 23 25
21 18 14 11 11 11 31 29 23 32 36 34 35 36 33 35 36 37 38 38 39 37 35 34 31 30 31 31 28 26 25 28 28 26 24 22 21 20 20 18 18 19 20 21
17 25 21 19 22 34 31 33 37 38 34 35 35 36 36 34 35 36 35 34 32 31 29 29 27 26 27 27 25 22 24 25 23 19 17 17 17 17 17 15 16 17 18 19
28 33 23 24 30 32 35 38 39 39 37 37 37 35 33 31 30 27 27 27 26 26 25 24 22 20 19 21 20 19 19 19 15 13 13 14 13 13 14 15 16 15 16 17
29 29 25 25 30 33 35 37 38 38 38 32 28 28 28 26 24 24 22 21 22 21 20 19 16 15 14 15 13 13 12 10 8 8 9 9 10 9 10 12 13 14 16 17
32 27 24 22 33 32 33 38 38 33 32 25 24 23 23 21 20 20 18 18 17 15 14 12 11 10 9 8 7 6 6 5 3 3 5 6 6 6 7 7 8 14 16 18

GFSCGP_sfc_temp_027.txt.gz
Temp
64 59 55 62 66 64 61 58 58 63 68 64 62 62 66 71 71 71 72 75 76 76 78 75 73 72 73 74 74 74 74 74 72 70 68 67 67 67 68 69 68 67 66 64
56 54 63 66 65 58 58 55 56 62 66 63 60 58 64 67 69 71 72 74 74 73 70 68 66 64 63 63 64 67 69 71 70 70 68 69 69 69 68 67 67 66 64 63
55 61 65 59 58 56 57 55 56 56 61 61 58 55 62 69 72 74 72 72 67 65 63 62 60 60 59 58 59 62 64 66 68 67 67 66 65 64 65 63 63 62 62 61
57 60 55 55 54 57 50 61 57 54 51 46 57 44 57 64 68 66 65 62 62 61 60 58 57 56 56 56 58 60 60 61 62 64 63 61 61 59 63 63 62 61 60 60
56 55 54 52 55 59 53 55 53 52 49 49 51 46 56 63 61 61 60 58 57 57 56 55 55 55 55 55 55 58 57 57 58 60 60 60 58 59 62 63 60 59 58 57
58 59 57 57 59 58 57 54 55 55 49 41 52 51 53 59 60 55 56 55 54 55 55 55 55 55 54 54 54 54 55 54 55 56 57 56 56 56 57 58 55 56 56 55
58 55 61 57 52 56 52 49 41 39 39 39 51 46 52 61 62 60 54 52 53 53 52 52 52 52 51 51 52 52 52 51 53 53 53 54 53 53 54 55 55 55 55 54
47 45 53 55 54 52 51 49 39 29 33 38 47 39 51 62 56 55 53 52 52 51 51 50 51 51 51 50 51 52 50 50 50 50 51 52 51 52 53 53 53 54 55 56
46 47 53 53 55 55 47 41 50 35 35 31 41 50 58 62 56 53 51 51 49 50 50 50 51 51 51 50 50 50 49 48 48 49 49 49 49 49 49 50 51 53 53 53
46 36 51 52 52 53 47 51 39 39 27 28 39 43 47 50 52 50 47 47 48 49 49 50 50 50 50 50 50 50 49 47 47 47 47 48 47 48 48 48 47 47 49 50
47 40 44 50 47 46 44 41 41 40 35 30 29 39 59 52 50 47 46 46 46 46 46 48 49 50 49 49 49 48 47 46 45 45 45 45 45 45 45 45 44 44 45 46
51 42 36 43 53 55 51 46 46 33 32 34 35 35 50 46 44 45 43 44 44 45 45 46 47 47 48 47 46 46 46 45 44 44 44 44 44 43 43 43 43 42 42 43
47 39 30 34 46 46 42 41 38 37 34 30 27 33 45 43 42 42 42 41 42 43 44 45 45 45 45 46 45 45 44 44 43 43 42 42 42 40 40 40 40 40 40 40
45 39 33 29 37 43 37 40 41 36 29 32 32 35 45 49 47 45 43 41 41 42 42 43 43 43 44 45 45 44 43 44 42 41 40 39 39 39 39 38 38 38 38 38
43 31 36 37 39 39 35 34 36 35 36 29 34 35 41 45 45 42 41 42 41 41 41 42 41 41 43 43 43 44 44 43 42 39 38 38 37 38 36 35 35 36 36 36
41 29 33 27 35 36 32 36 38 37 38 37 37 36 48 46 42 41 42 41 41 42 43 42 42 42 42 42 42 42 42 41 39 37 35 36 35 34 33 32 32 34 34 35
33 30 27 22 32 31 24 30 34 36 40 38 32 37 34 36 37 39 40 40 40 41 42 42 43 43 42 42 42 40 40 40 37 35 34 33 32 31 31 32 31 31 31 32
31 29 28 21 24 13 32 43 39 34 36 37 34 30 33 35 39 40 42 40 39 41 42 43 44 44 42 42 41 41 38 36 34 32 32 32 31 30 31 30 29 29 30 30
37 31 23 18 19 26 30 35 34 31 31 36 32 32 36 37 38 39 45 45 42 42 43 43 44 43 41 40 39 35 34 33 32 32 31 32 31 29 28 25 26 28 26 26
32 34 26 21 13 11 29 38 37 35 22 31 31 31 32 34 25 33 42 42 42 43 43 42 43 40 38 36 34 32 31 30 29 30 30 31 30 28 25 25 24 25 24 24
22 22 18 19 17 23 34 34 36 18 23 31 33 34 34 30 34 39 41 41 42 41 41 41 38 34 33 33 31 28 28 27 29 28 27 27 27 26 25 24 23 22 21 21
23 20 19 19 15 12 34 31 24 34 37 35 37 38 36 38 38 39 40 40 39 37 35 33 29 29 30 29 26 24 23 25 24 22 21 20 20 20 21 19 18 18 17 16
19 26 23 24 24 37 35 35 39 39 34 36 37 38 38 37 37 38 37 35 34 31 29 28 25 23 24 24 22 17 19 19 17 13 11 11 13 13 14 13 13 13 14 14
30 36 27 26 31 33 36 39 40 40 38 40 40 38 37 34 34 29 29 28 27 26 25 23 20 18 17 18 17 14 14 13 8 6 6 7 7 7 8 10 11 10 10 10
32 33 28 27 32 34 36 38 39 39 39 38 33 32 32 30 27 27 24 23 23 22 21 19 15 14 13 14 12 11 10 8 5 4 5 5 6 6 6 8 7 8 10 10
34 30 26 24 34 34 35 39 41 38 37 37 31 28 26 24 23 23 20 21 19 17 15 13 12 11 9 8 7 7 7 5 3 2 4 4 5 5 6 5 5 12 14 16

GFSCGP_sfc_temp_030.txt.gz
Temp
57 50 46 53 56 57 52 49 48 54 60 56 55 56 57 61 63 64 64 63 61 59 59 59 57 56 56 57 58 59 59 60 60 57 56 55 55 56 57 57 59 58 57 56
50 46 57 60 57 54 52 48 47 53 59 54 52 52 58 61 62 63 61 58 57 56 55 55 53 52 52 53 54 56 57 57 58 57 56 56 55 55 56 57 57 58 56 55
49 55 60 56 53 51 50 48 48 47 51 52 49 45 51 59 60 59 58 56 54 52 51 51 50 49 49 49 51 53 54 55 55 56 55 54 53 52 52 53 53 54 55 53
52 56 54 50 50 52 45 54 49 48 42 36 47 32 46 56 54 53 52 50 49 49 50 50 49 48 48 48 49 51 52 52 54 53 51 51 49 48 50 51 52 52 53 53
50 49 47 47 51 53 48 50 47 46 40 38 41 35 43 52 46 48 48 48 48 48 48 47 47 48 48 47 47 48 49 49 50 50 50 48 47 48 49 49 48 49 49 50
51 52 51 52 54 51 52 46 46 44 41 29 41 39 41 46 47 46 48 48 48 47 47 48 48 47 45 45 44 45 47 47 48 48 47 45 44 44 44 45 44 45 46 46
49 50 51 52 46 48 45 40 31 29 26 28 42 36 42 51 52 50 46 45 45 45 45 44 45 45 45 44 45 47 45 44 45 44 44 44 43 43 43 43 43 43 43 44
40 38 47 50 47 43 43 41 30 21 24 28 37 30 42 50 50 49 47 45 45 44 45 45 45 44 43 44 45 46 44 43 43 43 42 43 43 43 43 43 43 43 42 43
40 40 47 48 49 47 41 36 43 33 29 27 33 41 50 47 45 45 45 44 42 43 43 44 44 44 43 43 44 44 43 41 41 42 43 42 41 41 41 40 40 41 42 45
43 34 46 46 46 45 43 46 34 35 20 15 30 32 38 43 43 44 41 41 42 43 43 43 43 42 42 42 42 42 42 40 40 40 40 41 40 41 41 39 37 37 39 40
44 39 39 43 40 42 39 37 38 38 30 23 24 31 45 43 45 43 42 42 41 42 41 42 42 43 43 43 43 42 41 39 38 39 39 38 38 38 38 38 38 37 36 37
45 40 30 37 47 48 45 42 41 33 29 31 33 33 46 42 42 42 42 42 40 40 40 39 41 42 42 40 40 40 41 39 39 40 39 38 38 36 35 35 35 34 35 35
43 34 22 26 38 40 38 37 38 37 32 28 26 28 44 41 39 42 40 39 40 41 41 41 41 41 41 41 41 41 40 39 38 37 36 36 34 33 33 33 33 33 33 32
44 35 26 23 31 38 30 35 37 32 27 28 28 32 41 44 41 41 38 38 37 38 39 39 38 39 40 40 39 39 39 39 37 36 35 33 32 33 33 32 31 31 31 30
40 23 29 32 34 33 31 31 34 31 32 25 30 31 38 41 35 35 36 38 38 38 38 37 37 36 38 39 38 39 38 37 35 33 31 31 31 31 30 29 29 29 29 30
38 20 25 17 29 31 28 31 32 32 33 32 33 33 42 37 36 34 37 38 36 37 38 39 38 38 37 37 38 39 37 34 32 29 29 30 30 30 29 28 27 28 28 28
29 22 13 10 26 23 14 25 30 32 35 34 27 31 27 28 34 33 33 35 35 36 37 37 38 38 37 36 37 34 34 33 31 30 29 30 29 28 29 30 28 28 26 26
27 21 18 10 12 2 26 35 32 30 32 30 26 19 24 28 32 33 35 34 34 35 35 36 36 36 36 35 33 32 31 30 28 27 26 26 27 27 29 29 29 28 27 26
33 27 16 7 7 19 26 29 26 22 20 26 23 24 30 31 30 30 37 36 34 34 35 35 35 35 33 30 29 28 27 27 27 27 27 26 25 24 26 25 26 27 26 25
29 29 20 4 2 -2 22 29 33 30 14 22 21 22 25 27 14 22 34 35 35 36 35 32 31 30 28 27 27 25 25 24 24 25 25 24 23 21 21 22 22 24 23 23
9 9 12 15 11 14 25 27 31 11 18 22 25 26 26 23 25 31 34 33 35 33 30 29 27 26 26 25 23 22 22 20 22 20 19 18 17 15 15 15 16 17 17 18
14 7 6 5 -0 5 26 26 20 27 30 27 30 30 30 32 32 32 33 32 30 28 26 26 22 22 23 22 19 17 16 19 17 15 13 10 9 9 10 8 9 10 10 10
12 21 12 16 15 30 29 29 32 33 27 30 30 32 32 30 30 31 29 27 27 23 24 22 17 18 18 18 15 12 14 14 12 7 5 5 5 6 6 5 5 5 6 6
25 28 21 21 27 29 33 35 36 36 33 33 32 31 31 29 30 27 25 25 24 22 21 18 14 13 13 11 13 8 11 10 5 3 3 4 4 3 4 6 6 4 4 4
26 25 23 23 29 31 33 34 35 35 36 34 33 31 30 29 25 25 22 20 21 20 17 15 12 12 10 11 9 6 8 5 3 3 3 3 3 3 3 5 5 5 7 8
30 27 23 21 31 30 32 34 34 32 31 31 30 25 25 25 24 22 18 18 16 14 12 11 10 8 6 5 5 4 2 2 1 1 3 3 3 2 3 3 4 11 14 15

GFSCGP_sfc_temp_033.txt.gz
Temp
51 44 41 47 48 48 46 43 42 46 54 49 49 48 53 57 57 57 52 49 49 48 50 51 50 50 50 51 51 52 53 55 55 53 53 53 53 54 54 58 59 58 58 56
46 41 50 52 53 49 45 42 42 47 52 48 47 48 53 58 51 50 48 47 47 47 47 48 47 47 47 47 48 49 50 52 52 52 52 51 51 51 53 54 56 58 56 56
42 49 54 53 49 47 45 43 42 44 46 47 43 41 47 48 50 50 49 48 47 45 45 45 45 45 45 45 46 47 48 49 50 51 52 50 50 50 50 50 51 53 54 54
46 52 52 47 46 48 41 48 47 45 39 34 43 30 42 46 43 45 44 42 42 43 45 45 44 44 44 44 45 46 47 47 49 48 47 45 46 44 46 46 47 48 50 50
46 47 45 44 48 50 45 47 44 42 37 34 36 31 38 44 40 41 41 42 42 43 43 43 43 44 44 43 43 44 45 46 46 46 45 44 43 43 43 45 44 44 46 48
47 49 49 49 50 49 49 43 43 39 36 27 36 35 36 41 43 40 42 42 42 42 42 42 43 43 41 41 41 42 43 43 43 44 43 42 41 41 41 41 41 42 42 43
44 45 48 50 43 46 44 37 29 26 24 26 36 33 40 46 45 43 40 39 40 40 40 40 40 39 40 39 39 41 40 40 41 41 41 41 40 40 40 39 39 39 39 40
36 35 43 46 45 42 40 39 28 19 23 25 34 30 39 41 43 42 41 40 41 40 40 40 41 40 40 40 39 39 38 39 40 40 39 40 40 40 40 38 38 38 38 39
37 37 44 46 46 46 39 34 40 31 29 22 29 37 38 41 40 40 39 39 39 41 42 42 40 40 40 40 39 39 38 38 39 40 38 39 39 39 39 36 36 36 37 41
42 31 43 43 44 42 41 44 31 31 17 16 27 30 33 36 37 39 38 38 39 41 41 41 41 41 40 39 39 39 40 37 37 38 38 38 37 38 38 37 36 34 36 37
42 38 35 41 38 38 37 35 36 35 30 23 18 27 40 40 40 38 38 40 41 41 42 41 41 41 41 40 38 37 37 37 36 36 36 37 36 36 36 35 35 34 34 34
42 36 25 34 42 43 42 39 38 31 27 28 28 31 42 41 40 40 40 40 39 39 37 37 37 37 37 37 37 37 37 36 37 38 36 36 36 35 35 34 34 34 34 34
42 32 17 25 34 38 34 36 37 36 31 24 21 26 40 39 40 41 39 39 37 37 36 36 36 36 36 37 38 38 38 37 36 36 35 35 34 34 32 34 33 33 33 33
44 34 25 23 29 33 29 32 32 33 23 21 25 29 38 41 35 37 37 36 35 35 36 35 34 35 36 36 36 36 36 36 36 35 33 31 30 32 31 32 31 31 31 31
39 24 30 31 30 29 28 29 31 27 29 21 29 29 35 38 32 31 33 34 35 35 35 35 34 34 34 34 34 35 35 35 34 32 31 30 30 30 30 29 29 29 29 29
36 21 25 15 29 29 26 29 29 29 30 29 31 30 40 32 34 32 34 35 34 34 35 35 35 35 35 36 35 35 34 32 31 29 29 30 30 31 31 31 31 31 30 29
29 22 12 10 26 21 13 23 28 30 32 29 24 30 24 27 32 31 31 33 33 34 34 35 35 35 34 33 34 32 30 29 29 29 29 29 29 28 28 29 29 29 28 30
26 20 14 7 8 1 24 30 30 28 30 26 22 17 22 26 30 31 32 30 32 34 34 34 34 33 32 31 29 29 28 27 27 24 23 24 25 23 25 25 25 25 26 25
31 26 9 7 -0 14 24 28 26 23 22 21 21 22 28 29 28 27 33 34 33 34 34 33 32 30 28 27 26 26 25 25 24 24 23 21 19 18 19 17 18 19 19 19
28 28 19 -4 3 0 19 26 30 28 15 21 17 21 24 27 14 21 32 34 34 34 33 29 28 27 26 24 25 23 21 20 20 21 20 19 17 12 12 12 11 13 13 14
6 5 15 16 8 11 23 26 30 9 17 17 22 25 25 22 24 30 32 32 33 32 29 27 25 25 23 23 21 19 18 17 18 16 15 14 12 9 8 8 9 8 8 9
14 8 3 -1 -3 5 26 26 20 26 29 26 28 29 29 29 30 30 31 31 30 26 25 24 21 21 21 20 17 15 14 16 14 12 10 7 6 6 7 4 5 5 4 4
13 19 12 16 14 27 26 29 31 31 26 29 29 30 30 29 29 30 30 28 27 24 24 20 16 17 17 16 13 9 12 12 10 1 1 2 4 5 5 2 3 3 4 3
23 25 20 18 25 27 30 31 32 32 30 32 31 31 29 28 30 29 27 26 24 21 20 16 13 12 11 10 11 6 9 9 -4 -5 1 3 3 3 3 5 5 3 2 2
24 24 21 22 29 30 30 31 33 32 31 31 31 30 30 28 27 27 24 20 21 20 17 14 11 11 8 8 5 1 5 -1 -1 1 3 3 3 2 3 4 3 4 6 7
30 27 23 21 31 29 32 33 32 31 30 31 30 28 27 27 25 22 18 18 18 15 14 11 10 7 4 1 0 -2 -5 -7 -4 -0 2 2 3 3 3 2 2 10 13 15

GFSCGP_sfc_temp_036.txt.gz
Temp
49 44 41 46 47 46 43 40 41 44 51 45 46 46 52 53 53 47 43 43 43 44 46 46 46 46 46 46 47 48 48 49 51 49 50 51 52 52 54 58 59 58 57 56
44 41 49 50 49 46 44 41 40 46 49 46 45 46 46 46 44 44 43 41 42 42 43 44 44 44 44 44 45 46 47 47 48 49 47 48 48 48 54 55 56 56 56 55
41 48 51 50 46 45 43 41 40 43 44 44 41 40 42 45 45 45 43 43 42 41 41 41 42 41 42 41 42 44 45 46 45 47 48 49 48 47 48 48 50 51 52 53
44 50 49 45 45 46 39 46 44 42 37 33 40 29 39 41 39 40 40 38 38 39 40 41 40 40 40 39 41 43 44 44 45 44 44 42 41 40 41 42 44 46 46 47
45 44 43 43 46 47 44 45 42 40 35 32 33 30 36 39 36 36 36 38 38 39 39 39 39 40 40 40 39 40 42 42 42 42 42 41 39 39 39 41 40 41 43 43
45 47 47 48 47 46 47 43 40 35 34 26 33 33 34 38 40 36 37 38 39 38 38 39 40 40 38 38 39 39 40 40 41 41 40 39 38 38 38 37 37 38 39 40
41 44 45 48 43 43 42 37 29 25 23 26 34 30 36 38 40 40 37 36 37 37 37 37 37 37 37 36 36 40 38 37 38 39 39 38 37 37 36 36 35 36 36 36
35 34 42 45 44 41 38 38 26 16 21 24 32 29 36 37 39 39 39 38 38 37 38 37 37 37 37 37 36 36 36 36 37 37 36 37 36 36 36 36 36 36 36 37
34 35 42 43 44 45 37 34 38 30 28 26 28 31 36 37 36 36 36 37 36 37 37 37 38 37 38 38 39 38 36 36 36 36 36 36 36 35 34 34 35 35 36 39
41 30 41 41 43 41 39 42 30 29 14 18 25 28 31 32 34 36 35 36 37 38 39 40 41 40 40 40 39 38 39 37 36 35 36 36 35 36 36 35 34 33 35 35
40 37 34 39 36 36 35 33 33 33 30 18 15 26 37 37 38 36 36 37 37 38 38 37 37 37 37 38 39 38 38 37 37 37 36 35 35 33 33 34 34 34 34 33
41 35 25 33 39 39 39 36 35 30 26 26 26 29 40 40 38 38 38 39 38 38 36 34 35 35 35 34 34 34 34 34 35 35 35 34 33 32 31 30 31 30 32 33
42 30 17 25 34 35 34 34 35 32 30 21 24 25 39 38 37 38 37 37 37 35 33 34 33 33 34 33 33 33 33 33 34 33 32 32 31 30 30 30 30 30 30 29
44 32 27 24 29 32 28 32 32 30 22 22 26 28 34 36 35 35 37 36 34 33 34 33 32 33 33 34 33 33 33 33 33 32 31 29 29 29 29 29 28 28 28 27
38 25 28 30 31 31 28 30 30 28 30 24 31 29 36 37 32 34 34 32 32 32 32 32 32 32 32 32 32 33 33 32 32 30 29 29 29 29 28 27 27 27 27 28
35 22 25 17 29 30 27 30 29 30 31 29 30 29 40 36 31 30 32 32 32 32 33 34 33 33 33 33 32 33 31 30 29 27 28 29 28 28 28 27 27 27 28 27
30 24 18 16 24 22 15 22 29 32 31 29 24 30 24 27 32 31 31 31 32 33 33 34 34 34 34 33 33 29 28 28 27 27 25 25 25 22 23 24 23 23 22 22
28 23 17 9 11 3 25 27 28 28 30 28 22 18 22 26 29 31 31 31 32 33 33 34 33 32 31 28 28 28 27 26 24 21 18 19 20 18 20 19 18 18 18 17
31 25 9 9 4 14 25 28 25 23 21 22 21 21 27 27 27 26 32 32 32 33 34 33 32 30 27 25 26 25 23 23 21 20 19 18 15 13 15 11 13 14 12 12
27 28 20 -0 -0 1 21 25 28 28 14 18 17 20 21 25 13 23 30 33 33 33 32 31 28 27 25 23 23 22 20 18 17 18 17 16 14 6 8 9 8 9 9 10
7 9 19 16 5 9 22 25 29 11 18 17 20 25 23 22 27 29 31 31 32 32 30 27 26 24 22 21 20 18 17 15 16 14 14 13 11 7 6 6 7 6 5 7
14 10 7 7 4 4 24 25 20 26 28 26 27 29 27 29 30 30 31 30 30 28 26 25 21 20 20 19 16 15 13 15 12 11 9 6 3 4 6 3 3 3 2 2
15 19 12 15 14 27 26 30 33 32 26 28 28 30 30 29 29 30 30 29 29 26 24 20 17 17 17 16 13 9 12 11 9 -1 -2 -2 1 3 4 1 2 1 2 2
23 25 19 17 24 25 29 33 31 31 30 32 31 31 29 29 30 29 28 28 26 22 19 16 14 14 13 13 12 8 8 8 -6 -10 -3 1 1 2 2 4 4 1 1 1
24 23 19 20 29 28 29 30 32 31 30 31 30 30 30 28 28 28 26 23 22 20 16 14 12 13 12 11 9 4 4 -2 -5 -4 -0 1 1 -0 2 4 3 4 6 7
31 27 22 20 32 30 31 34 33 31 31 30 29 28 27 27 27 25 21 20 17 15 12 11 11 9 9 7 5 4 -1 -7 -9 -4 0 1 1 2 3 2 2 10 12 15

GFSCGP_sfc_temp_042.txt.gz
Temp
45 43 40 43 45 43 42 38 38 41 46 43 43 43 42 40 38 36 36 36 37 38 40 41 41 41 41 41 42 43 43 44 47 45 45 47 45 48 50 50 49 49 50 52
42 39 47 47 45 44 40 37 37 42 44 44 41 41 38 38 36 36 36 36 36 37 38 39 39 39 38 38 40 41 42 42 43 44 43 43 42 43 45 46 46 46 46 47
40 46 48 47 42 41 38 37 37 41 40 39 38 37 36 36 37 38 37 37 37 36 36 36 36 35 36 36 36 39 40 41 41 43 43 42 42 41 41 40 40 40 41 41
42 46 46 41 41 43 36 43 42 40 36 32 36 29 34 34 33 35 35 33 34 34 35 36 35 34 34 34 35 38 39 40 41 42 40 38 37 36 34 36 37 39 39 39
42 42 42 41 43 45 41 42 40 38 33 31 30 29 33 33 30 32 33 34 33 34 34 34 34 35 35 34 33 34 37 38 38 38 39 38 36 35 34 35 35 36 37 37
43 45 45 45 43 44 44 40 37 32 31 24 30 32 31 32 34 32 33 34 35 34 34 34 35 35 34 33 33 33 36 35 36 36 36 35 34 34 34 33 33 33 34 35
40 42 43 45 41 41 40 37 29 25 23 25 28 27 34 37 35 36 35 34 34 34 33 33 33 33 33 32 33 35 34 33 33 34 34 33 32 33 32 32 31 32 32 32
36 34 42 46 42 40 37 38 28 19 20 23 30 26 34 34 34 37 38 35 34 33 34 33 34 33 33 33 32 32 32 32 32 33 32 32 32 31 31 32 31 31 31 32
34 36 41 42 42 42 35 33 36 28 20 21 27 31 32 33 32 32 33 33 32 33 33 34 34 33 33 32 32 32 32 32 32 32 31 31 31 31 30 30 30 30 30 35
41 32 38 39 41 40 38 40 31 28 16 13 25 26 31 30 31 32 31 32 33 34 34 34 34 34 34 33 33 32 33 32 32 32 31 31 30 30 30 30 29 28 29 29
40 38 33 38 35 35 34 33 32 32 26 18 14 25 34 36 33 32 33 35 34 34 33 34 34 34 33 32 32 32 32 31 31 31 30 30 30 30 30 29 28 28 28 28
42 36 27 33 35 36 36 35 35 29 25 24 25 30 36 35 36 36 36 36 35 35 34 33 33 33 32 32 32 32 30 30 31 31 31 30 30 29 29 28 27 27 26 27
42 33 21 27 32 33 32 34 35 32 27 22 21 26 36 34 35 35 35 35 35 35 33 32 32 32 33 32 31 31 31 31 31 31 30 30 29 28 28 27 27 27 26 25
46 35 30 29 31 33 30 32 32 31 22 25 31 35 31 33 34 33 35 35 35 34 34 33 32 31 31 31 31 30 31 31 31 30 29 29 28 27 26 26 25 25 24 23
41 34 30 29 30 29 29 31 31 29 35 29 34 32 33 36 35 34 35 35 35 34 32 31 31 31 30 31 31 31 30 30 29 28 28 27 27 27 25 24 23 23 23 22
35 27 27 22 29 29 28 30 29 32 29 27 29 30 38 33 33 34 35 35 34 33 32 32 33 32 32 32 31 32 29 29 29 27 27 27 25 24 23 22 21 21 20 19
31 26 23 21 23 24 25 25 29 29 30 31 27 35 26 28 33 33 33 32 33 33 33 32 32 33 33 32 33 30 29 27 26 26 25 23 21 18 19 19 18 17 15 16
27 24 24 15 17 17 28 25 27 30 32 30 25 24 27 29 29 31 31 31 32 33 33 32 31 31 32 31 30 29 27 25 24 20 17 18 17 15 17 15 14 13 14 12
32 28 17 18 15 21 27 25 25 25 26 28 28 28 29 28 28 26 32 30 31 31 32 32 32 31 30 29 27 25 23 23 21 19 18 16 14 10 12 7 10 11 9 9
30 30 31 13 16 13 22 24 28 30 19 23 25 23 24 26 17 24 30 31 31 32 32 32 31 30 29 26 24 22 20 19 17 18 17 15 12 5 4 8 6 7 5 9
20 21 23 16 19 19 25 26 30 16 20 16 23 24 23 23 26 31 31 30 31 31 31 31 29 28 27 22 21 20 18 16 16 14 13 12 10 4 6 3 4 2 2 6
17 18 17 18 15 14 25 26 23 28 28 26 26 28 27 29 31 30 30 30 30 30 30 30 24 24 20 20 20 18 16 15 12 11 11 7 5 7 7 -5 -1 -3 -3 -2
18 21 17 22 20 27 29 29 32 32 27 28 28 29 30 29 28 30 28 28 29 28 29 22 22 19 16 17 16 14 14 12 10 5 2 3 5 5 3 -3 1 -1 -4 -4
22 25 19 21 24 26 29 30 30 31 31 32 31 30 28 28 29 29 27 27 27 25 25 19 17 17 15 12 14 10 11 10 -1 -1 3 6 3 4 4 4 3 -1 -3 -2
25 24 18 19 26 27 29 30 33 31 30 29 29 30 30 27 27 27 26 24 25 24 19 18 18 18 15 12 9 5 7 3 1 1 4 4 3 1 1 3 2 3 4 5
26 23 21 18 30 30 31 32 32 29 30 29 28 27 26 27 27 26 24 25 23 20 15 14 13 11 8 7 5 1 -0 -1 -2 2 4 4 2 1 2 1 1 8 13 16

GFSCGP_sfc_temp_045.txt.gz
Temp
46 44 42 44 46 44 43 40 42 43 47 45 45 45 41 40 39 38 38 39 39 39 41 42 42 42 42 43 44 44 46 47 50 50 50 50 47 48 47 47 46 47 47 50
42 39 47 47 45 44 41 39 39 43 45 44 42 43 39 39 38 39 38 38 38 39 40 40 40 40 39 40 41 43 43 44 47 47 46 46 45 45 44 45 44 44 45 45
40 45 47 47 41 41 39 39 38 42 41 41 39 40 37 37 38 38 38 38 38 38 38 38 38 38 39 38 38 41 42 42 44 45 47 46 45 45 44 43 42 41 43 43
42 46 46 42 41 43 37 43 42 40 38 34 38 33 38 35 34 36 36 36 37 37 38 38 37 37 37 37 38 40 41 42 42 44 42 41 41 39 39 40 40 41 41 41
43 42 42 40 43 46 42 42 41 39 35 33 34 33 36 34 32 33 34 35 36 37 37 37 36 36 36 37 36 37 40 40 40 41 42 40 38 38 39 39 39 39 39 39
43 44 45 46 44 44 43 40 37 34 33 26 34 34 34 33 36 35 35 35 36 36 36 36 36 36 36 37 37 37 38 37 38 39 39 39 38 37 38 37 36 37 37 38
39 41 44 46 41 43 41 39 30 27 25 27 30 30 36 39 38 39 37 36 36 36 35 35 35 35 36 36 36 37 37 35 36 37 37 37 36 36 36 35 35 36 36 36
34 32 41 44 43 40 37 39 31 24 22 26 30 27 37 36 36 37 39 38 36 35 35 35 35 35 35 35 35 35 35 35 35 36 35 36 36 36 35 35 35 35 35 35
34 36 40 42 42 43 38 35 38 28 21 23 30 33 38 35 34 33 34 35 35 34 34 35 35 35 35 34 35 35 34 34 35 34 35 35 35 35 34 33 34 33 34 36
41 32 38 39 41 39 39 41 32 29 20 18 27 29 34 34 33 31 31 35 35 35 35 35 35 35 35 35 35 35 35 34 34 34 34 34 34 34 33 34 33 32 32 32
40 37 33 38 36 36 34 33 33 34 28 21 18 28 36 38 35 33 34 36 36 36 36 36 36 35 35 35 34 34 34 33 33 34 33 33 33 33 33 32 31 31 31 31
42 37 27 32 35 36 35 36 35 31 25 24 26 28 36 35 37 37 37 37 37 37 37 36 35 35 34 33 33 33 33 33 34 33 33 33 33 32 31 31 30 30 29 29
42 34 24 27 33 33 33 35 35 33 29 22 23 24 36 34 35 35 35 35 36 36 34 34 34 34 34 33 32 33 33 33 33 32 32 32 32 31 31 30 29 29 28 27
47 35 35 35 33 34 30 32 33 35 23 27 31 30 33 35 36 35 35 35 35 35 36 35 32 33 33 33 33 33 32 32 32 32 31 31 31 30 29 28 27 26 26 25
42 36 31 29 30 30 29 32 31 32 36 31 33 34 35 39 38 37 36 34 34 34 33 33 33 32 32 32 33 32 32 32 31 31 30 30 30 28 27 26 25 24 24 23
36 30 30 25 29 30 29 31 31 33 32 33 32 33 40 40 34 33 35 34 34 34 34 34 34 33 33 34 33 34 32 31 31 30 30 29 27 26 25 23 22 22 21 20
34 28 29 26 23 24 25 27 30 29 29 34 28 36 31 32 34 34 34 34 34 35 35 34 34 34 34 34 35 32 32 30 29 28 27 26 23 21 21 21 19 18 17 17
30 30 30 18 21 19 27 25 28 31 32 29 25 24 31 31 31 33 34 34 34 35 35 35 34 32 32 32 32 32 30 28 26 24 21 21 19 17 18 17 16 15 15 14
28 29 20 20 19 24 23 25 26 27 27 29 30 30 30 29 30 29 33 32 34 34 35 34 33 32 31 31 31 28 26 25 23 22 20 17 16 13 15 11 13 13 12 11
29 31 29 17 20 18 22 23 28 31 20 24 32 26 25 27 21 27 32 32 32 33 32 32 32 31 30 29 26 24 23 22 21 21 20 17 14 9 9 11 9 10 8 11
22 23 25 21 21 22 26 26 30 21 23 21 26 25 25 25 30 32 33 31 32 32 32 31 30 29 29 25 23 23 21 21 20 17 16 14 12 8 8 7 8 6 5 8
21 22 21 21 19 18 27 27 27 30 28 28 27 28 28 30 31 32 32 33 32 31 30 31 26 26 23 22 22 21 20 18 15 14 13 10 6 8 9 1 3 3 2 2
23 26 24 26 25 28 31 29 32 33 29 28 29 30 31 30 30 30 30 29 29 28 28 25 25 23 18 19 20 19 17 15 12 9 5 3 4 7 6 1 4 4 4 2
24 26 24 24 26 27 30 32 32 33 32 32 31 30 28 29 29 29 26 27 27 25 25 21 20 20 21 15 17 15 14 13 5 3 4 5 3 5 6 7 6 3 1 2
26 26 21 22 27 29 30 31 33 31 31 30 29 29 29 28 25 27 25 25 25 24 21 20 21 21 20 13 11 9 10 7 4 3 5 5 4 4 5 5 4 5 6 4
26 24 23 21 31 31 33 36 34 31 31 30 28 26 25 27 27 26 24 25 23 21 17 17 17 15 11 10 8 4 4 4 3 4 4 5 5 4 4 3 2 9 13 16

GFSCGP_sfc_temp_048.txt.gz
Temp
59 58 53 60 62 60 58 55 55 56 57 57 59 59 61 51 52 52 51 51 51 50 50 51 51 52 54 55 54 54 55 57 61 62 60 57 55 54 54 54 54 54 56 56
54 52 62 58 57 56 55 54 55 55 55 55 57 56 60 50 50 52 51 51 51 50 51 50 51 52 52 52 54 55 56 57 58 58 57 57 54 53 53 52 51 52 52 53
56 58 58 55 51 51 53 52 54 53 52 53 51 52 50 45 46 47 49 51 51 52 50 50 50 51 51 50 50 51 52 54 55 56 55 54 55 55 53 51 49 49 50 50
55 56 52 52 52 54 50 54 52 50 49 46 50 47 50 47 44 44 46 48 49 49 49 49 49 49 49 48 50 51 51 52 53 54 54 54 53 49 49 49 48 47 48 49
53 48 49 49 52 53 52 52 51 49 48 46 46 45 53 44 42 43 46 48 50 50 49 48 47 47 47 49 49 50 50 50 51 52 52 51 48 48 49 49 46 46 47 47
53 53 53 55 50 53 50 49 46 46 46 38 47 45 50 44 48 46 47 47 48 47 47 46 46 47 47 47 48 49 48 47 49 50 50 49 47 47 47 47 45 45 46 46
49 48 51 52 48 49 50 48 40 36 36 37 40 39 52 50 47 47 46 46 47 47 46 45 45 45 45 45 45 47 48 46 47 48 48 48 48 47 46 46 45 45 45 44
43 41 47 52 53 48 46 50 41 30 32 38 36 37 48 46 46 46 51 49 47 46 46 45 46 45 45 45 46 46 45 44 46 46 45 46 46 46 46 45 45 44 43 43
42 42 49 49 50 53 45 41 49 34 28 34 43 44 49 41 41 42 45 45 44 45 45 45 45 46 45 44 44 45 44 44 45 45 45 45 45 44 43 43 44 43 43 42
48 40 44 45 49 47 47 52 39 41 30 30 36 37 47 39 41 39 40 42 44 45 44 45 45 45 45 45 45 45 45 44 44 44 45 44 43 44 43 43 41 41 40 40
48 45 40 43 43 45 41 42 42 46 40 35 34 40 51 50 47 42 43 45 46 45 45 45 45 46 45 45 44 44 43 42 42 43 43 42 42 42 42 41 40 40 39 38
50 43 36 40 44 44 50 47 47 41 32 36 35 42 45 47 49 48 46 46 48 47 47 47 46 45 44 44 44 44 44 43 44 43 42 42 41 41 40 39 39 38 37 36
49 39 32 34 41 41 40 43 47 46 37 33 34 40 44 43 44 47 47 46 46 46 47 47 46 45 45 44 43 44 43 43 43 42 42 41 41 40 39 38 37 36 36 34
52 42 38 38 44 46 37 42 42 42 37 39 38 44 41 44 44 45 46 47 46 46 47 47 45 45 45 45 44 44 44 44 42 42 41 40 40 40 39 37 35 34 33 32
47 36 43 46 41 43 41 41 41 40 45 40 45 43 47 48 47 48 50 48 46 45 46 46 46 45 45 44 44 44 45 43 42 41 40 40 40 38 36 33 32 31 30 29
40 36 41 37 39 37 36 42 42 43 45 46 47 44 54 52 49 47 47 45 44 45 46 45 45 45 43 43 43 43 43 42 41 40 39 40 37 34 32 30 28 28 27 26
37 37 32 31 36 30 28 35 40 43 46 47 40 46 42 41 44 46 46 45 45 45 45 44 44 44 43 42 43 42 42 42 38 37 36 34 33 30 29 28 26 25 24 24
34 34 33 24 26 23 36 37 44 41 42 42 37 36 41 44 45 45 47 45 44 44 44 44 44 44 42 43 42 42 40 38 36 34 32 31 29 27 26 25 24 23 23 21
31 32 24 23 24 32 28 33 35 36 38 39 39 38 38 36 41 40 42 44 45 44 44 45 45 43 41 40 40 37 35 36 34 33 31 29 26 23 24 21 22 22 20 20
30 31 32 23 25 24 35 32 35 40 32 35 37 34 33 36 35 42 41 41 41 42 42 42 41 39 38 38 36 34 34 32 32 32 31 28 24 20 19 20 19 19 18 17
26 26 27 25 26 28 34 32 36 28 33 32 36 35 34 36 41 42 41 39 41 40 40 39 39 37 37 34 33 33 32 31 34 29 26 23 21 18 19 17 17 16 15 15
28 26 25 24 24 23 33 31 33 36 33 33 35 35 35 37 37 38 40 39 38 38 37 38 34 34 34 32 31 32 30 32 26 24 22 19 16 18 16 13 14 12 12 11
26 30 28 31 32 31 35 34 37 37 35 34 36 36 39 36 38 38 38 37 37 37 34 32 33 32 30 29 30 29 30 25 22 19 16 15 14 14 14 12 12 14 13 13
28 30 30 30 30 31 34 33 36 37 38 37 38 36 36 36 36 34 34 34 34 33 31 29 28 28 29 27 26 29 23 22 16 16 15 13 12 13 12 14 14 14 14 14
30 30 26 26 29 32 33 34 36 36 36 34 33 34 36 35 32 33 32 31 32 31 29 27 28 29 30 26 24 21 19 16 16 15 14 15 15 13 15 14 15 14 15 14
31 28 28 28 34 36 37 38 37 35 34 34 34 31 31 32 33 31 30 32 30 29 27 25 27 27 27 22 19 16 15 15 15 15 14 16 16 15 14 14 13 15 17 18